{"data":{"norad_id":52607,"epoch":"2026-05-25T02:59:55.502880Z","epoch_age_seconds":60837,"freshness":"FRESH","line1":"1 52607U 22052K   26145.12494795  .00000217  00000+0  31697-4 0  9999","line2":"2 52607  53.2138 300.9978 0001264 100.5252 259.5882 15.08836214222315","mean_motion":15.08836214,"eccentricity":0.0001264,"inclination_deg":53.2138,"raan_deg":300.9978,"arg_perigee_deg":100.5252,"mean_anomaly_deg":259.5882,"bstar":3.1697e-5,"rev_number":22231,"period_min":95.43779415146,"perigee_km":538.88053973178,"apogee_km":540.62938281959,"semimajor_km":6917.8919612757,"source":"CELESTRAK","updated_at":"2026-05-25T13:38:17.198652Z"}}